KA1GJU-3 Weather Reports


time (UTC)temp
C
wind
direction
speed
KPH
gust
KPH
rain 1hr
cm
rain 24hr
cm
rain mn
cm
humidity
%
barometer
mb
20260505224416 23 232 9.7 32.2 0.00 0.00 0.00 100
20260505223416 24 230 9.7 30.6 0.00 0.00 0.00 100
20260505222416 24 241 9.7 27.4 0.00 0.00 0.00 100
20260505221417 25 248 6.4 30.6 0.00 0.00 0.00 100
20260505220416 25 175 19.3 27.4 0.00 0.00 0.00 100
20260505215416 25 202 22.5 37.0 0.00 0.00 0.00 100
20260505214416 25 253 12.9 32.2 0.00 0.00 0.00 100
20260505213417 26 222 14.5 32.2 0.00 0.00 0.00 100
20260505212417 26 267 11.3 30.6 0.00 0.00 0.00 100
20260505211417 26 160 17.7 22.5 0.00 0.00 0.00 100
20260505210417 27 210 11.3 17.7 0.00 0.00 0.00 100
20260505205417 27 244 17.7 30.6 0.00 0.00 0.00 100
20260505204417 27 188 11.3 35.4 0.00 0.00 0.00 100
20260505203417 28 189 25.7 25.7 0.00 0.00 0.00 100
20260505202417 27 289 14.5 30.6 0.00 0.00 0.00 100
20260505201417 27 262 9.7 43.5 0.00 0.00 0.00 100
20260505200417 26 246 6.4 41.8 0.00 0.00 0.00 100
20260505195417 28 188 4.8 14.5 0.00 0.00 0.00 100
20260505194417 27 201 25.7 40.2 0.00 0.00 0.00 100
20260505193417 27 268 11.3 27.4 0.00 0.00 0.00 100
20260505192417 28 251 9.7 41.8 0.00 0.00 0.00 100
20260505191417 27 206 9.7 33.8 0.00 0.00 0.00 100
20260505190417 28 160 11.3 29.0 0.00 0.00 0.00 100
20260505185417 28 236 19.3 24.1 0.00 0.00 0.00 100
20260505184417 29 250 6.4 25.7 0.00 0.00 0.00 100
20260505183417 30 251 12.9 24.1 0.00 0.00 0.00 100
20260505182417 28 257 11.3 24.1 0.00 0.00 0.00 100
20260505181417 28 230 16.1 29.0 0.00 0.00 0.00 100
20260505180417 28 240 11.3 38.6 0.00 0.00 0.00 100
20260505175417 28 201 19.3 24.1 0.00 0.00 0.00 100
20260505174417 28 253 11.3 19.3 0.00 0.00 0.00 100
20260505173417 28 230 14.5 25.7 0.00 0.00 0.00 100
20260505172417 27 189 20.9 25.7 0.00 0.00 0.00 100
20260505171417 28 255 6.4 22.5 0.00 0.00 0.00 100
20260505170417 27 168 9.7 30.6 0.00 0.00 0.00 100
20260505165417 27 244 4.8 17.7 0.00 0.00 0.00 100
20260505164417 27 282 4.8 24.1 0.00 0.00 0.00 100
20260505163417 27 230 9.7 25.7 0.00 0.00 0.00 100
20260505162417 26 300 14.5 24.1 0.00 0.00 0.00 100
20260505161417 26 244 9.7 16.1 0.00 0.00 0.00 100
20260505160417 25 244 1.6 14.5 0.00 0.00 0.00 100
20260505152417 23 199 6.4 16.1 0.00 0.00 0.00 100
20260505151417 23 247 4.8 11.3 0.00 0.00 0.00 100
20260505150417 23 216 11.3 16.1 0.00 0.00 0.00 100
20260505140417 20 251 6.4 12.9 0.00 0.00 0.00 100
20260505124417 18 234 8.0 12.9 0.00 0.00 0.00 100
20260505123417 17 261 8.0 14.5 0.00 0.00 0.00 100
20260505122417 17 260 8.0 12.9 0.00 0.00 0.00 100
20260505121417 17 240 8.0 16.1 0.00 0.00 0.00 100
20260505120417 17 217 8.0 16.1 0.00 0.00 0.00 100
20260505115417 17 241 11.3 16.1 0.00 0.00 0.00 100
20260505114417 16 260 12.9 17.7 0.00 0.00 0.00 100
20260505113417 16 247 6.4 19.3 0.00 0.00 0.00 100
20260505112417 15 257 8.0 16.1 0.00 0.00 0.00 100
20260505111417 15 246 8.0 19.3 0.00 0.00 0.00 100
20260505110417 15 250 11.3 16.1 0.00 0.00 0.00 100
20260505101418 12 237 8.0 14.5 0.00 0.00 0.00 100
20260505100418 12 237 8.0 11.3 0.00 0.00 0.00 100
20260505095418 11 251 6.4 9.7 0.00 0.00 0.00 100
20260505094418 12 260 6.4 11.3 0.00 0.00 0.00 100
20260505093418 11 257 8.0 11.3 0.00 0.00 0.00 100
20260505092418 12 246 8.0 16.1 0.00 0.00 0.00 100
20260505091418 11 229 6.4 14.5 0.00 0.00 0.00 100
20260505090418 12 232 9.7 14.5 0.00 0.00 0.00 100
20260505085418 12 229 8.0 12.9 0.00 0.00 0.00 100
20260505084418 11 246 8.0 14.5 0.00 0.00 0.00 100
20260505083418 12 222 9.7 14.5 0.00 0.00 0.00 100
20260505082418 12 277 6.4 14.5 0.00 0.00 0.00 100
20260505081418 12 237 6.4 14.5 0.00 0.00 0.00 100
20260505080418 11 248 6.4 14.5 0.00 0.00 0.00 100
20260505075418 11 240 3.2 14.5 0.00 0.00 0.00 100
20260505074418 11 247 4.8 9.7 0.00 0.00 0.00 100
20260505073418 11 241 8.0 14.5 0.00 0.00 0.00 100
20260505072418 11 216 3.2 9.7 0.00 0.00 0.00 100
20260505071418 11 232 6.4 8.0 0.00 0.00 0.00 100
20260505070418 11 255 6.4 8.0 0.00 0.00 0.00 100
20260505065418 12 229 9.7 11.3 0.00 0.00 0.00 100
20260505064418 12 246 6.4 11.3 0.00 0.00 0.00 100
20260505063418 12 268 6.4 12.9 0.00 0.00 0.00 100
20260505062418 12 268 8.0 12.9 0.00 0.00 0.00 100
20260505061418 12 246 8.0 12.9 0.00 0.00 0.00 100
20260505060418 12 226 9.7 11.3 0.00 0.00 0.00 100
20260505055418 12 257 6.4 12.9 0.00 0.00 0.00 100
20260505054418 12 254 8.0 17.7 0.00 0.00 0.00 100
20260505053418 12 254 6.4 17.7 0.00 0.00 0.00 100
20260505052418 13 247 4.8 14.5 0.00 0.00 0.00 100
20260505051418 13 264 6.4 16.1 0.00 0.00 0.00 100
20260505050418 12 227 11.3 14.5 0.00 0.00 0.00 100
20260505041418 13 271 9.7 16.1 0.00 0.00 0.00 100
20260505040418 13 264 6.4 14.5 0.00 0.00 0.00 100
20260505035418 13 254 8.0 16.1 0.00 0.00 0.00 100
20260505034418 13 236 8.0 12.9 0.00 0.00 0.00 100
20260505033418 14 243 6.4 17.7 0.00 0.00 0.00 100
20260505032419 14 230 8.0 14.5 0.00 0.00 0.00 100
20260505031418 14 236 8.0 14.5 0.00 0.00 0.00 100
20260505030418 14 229 8.0 16.1 0.00 0.00 0.00 100
20260505025418 14 226 12.9 14.5 0.00 0.00 0.00 100
20260505024418 15 240 6.4 24.1 0.00 0.00 0.00 100
20260505023418 15 232 9.7 16.1 0.00 0.00 0.00 100
20260505022418 15 253 14.5 14.5 0.00 0.00 0.00 100
20260505021419 15 223 6.4 11.3 0.00 0.00 0.00 100
20260505020419 15 227 6.4 16.1 0.00 0.00 0.00 100
20260505015419 16 246 8.0 16.1 0.00 0.00 0.00 100
20260505014419 15 243 12.9 25.7 0.00 0.00 0.00 100
20260505013419 16 239 8.0 17.7 0.00 0.00 0.00 100
20260505012419 16 232 9.7 16.1 0.00 0.00 0.00 100
20260505011419 16 243 11.3 14.5 0.00 0.00 0.00 100
20260505010419 16 230 6.4 17.7 0.00 0.00 0.00 100
20260505005419 16 234 11.3 17.7 0.00 0.00 0.00 100
20260505004419 17 205 11.3 17.7 0.00 0.00 0.00 100
20260505003419 17 223 14.5 16.1 0.00 0.00 0.00 100
20260505002419 17 264 9.7 9.7 0.00 0.00 0.00 100
20260505001419 17 291 4.8 11.3 0.00 0.00 0.00 100
20260505000420 17 262 4.8 8.0 0.00 0.00 0.00 100
20260504235419 17 248 3.2 8.0 0.00 0.00 0.00 100
20260504234419 18 255 8.0 11.3 0.00 0.00 0.00 100
20260504233419 19 254 6.4 12.9 0.00 0.00 0.00 100
20260504232419 19 277 4.8 11.3 0.00 0.00 0.00 100
20260504231419 19 291 11.3 11.3 0.00 0.00 0.00 100
20260504230419 20 264 4.8 17.7 0.00 0.00 0.00 100
20260504225419 20 250 4.8 12.9 0.00 0.00 0.00 100